Location: Hilton Head Island
(32.2163°N, 80.7526°W)
Time: 14:31:34
(UTC-04:00)

Vanguard 1 - Pass Details

Date: 20 February 2026
Orbit: 653 x 3818 km, 34.2° (Epoch: 9 March)

Event Time Altitude Azimuth Distance (km) Brightness Sun altitude
Rises 22:20:49 0° 287° (WNW) 7,036 15.0 -52.0°
Reaches altitude 10° 22:25:41 10° 280° (W) 6,340 14.6 -52.9°
Maximum altitude 22:44:15 37° 222° (SW) 4,988 13.4 -56.3°
Enters shadow 22:46:48 36° 211° (SSW) 5,019 13.4 -56.7°
Drops below altitude 10° 23:03:13 10° 163° (SSE) 6,365 - -59.5°
Sets 23:08:15 0° 155° (SSE) 7,054 - -60.3°
